#timestamp,LO_Frequency,Hit,StdDev 
1654488015.7,286046998.9,N
1654488035.5,286046998.8,N
1654488055.4,286046998.8,N
1654488075.2,286046999.3,N
1654488095.0,286046996.5,N
1654488095.9,286046996.5,N
1654488115.8,286046997.0,N
1654488135.6,286046996.7,N
1654488155.5,286046996.9,N
1654488175.3,286046996.5,N
1654488195.1,286046999.5,N
1654488215.9,286046998.3,N
1654488235.7,286046999.5,N
1654488255.5,286046997.1,N
1654488275.4,286046999.3,N
1654488295.2,286046998.5,N
1654488315.1,286046999.1,N
1654488316.0,286046999.1,N
1654488335.8,286046996.9,N
1654488355.6,286046996.6,N
1654488375.5,286046997.5,N
1654488395.3,286046997.6,N
1654488415.1,286046996.8,N
1654488435.9,286046999.1,N
1654488455.7,286046998.7,N
1654488475.6,286046998.4,N
1654488495.4,286046999.1,N
1654488515.2,286046996.8,Y
1654488535.1,286046998.4,P
1654488536.0,286046998.4,P
1654488555.8,286046998.4,P
1654488575.7,286047000.9,Y
1654488595.5,286047002.2,P
1654488615.3,286047002.1,N
1654488635.2,286047002.1,N
1654488655.0,286046999.7,N
1654488655.9,286046999.7,N
1654488675.8,286047000.3,N
1654488695.6,286047002.4,N
1654488715.4,286047000.7,N
1654488735.3,286047000.1,N
1654488755.1,286047000.6,N
1654488775.8,286047000.0,N
1654488795.7,286047002.2,N
1654488815.5,286047002.1,N
1654488835.4,286047002.2,N
1654488855.2,286046999.9,N
1654488875.0,286047000.7,N
1654488875.9,286047000.7,N
1654488895.8,286047001.1,N
1654488915.6,286047000.4,N
1654488935.4,286047002.8,N
1654488955.3,286047002.7,N
1654488975.1,286047002.2,N
1654488995.9,286047002.8,N
1654489015.7,286046999.7,N
1654489035.5,286047000.0,N
1654489055.4,286047002.4,N
1654489075.2,286047000.9,N
1654489095.0,286047000.8,N
1654489095.9,286047000.8,N
1654489115.8,286047002.6,N
1654489135.6,286047002.2,N
1654489155.5,286047002.3,N
1654489175.3,286047002.6,N
1654489195.1,286047002.0,N
1654489215.9,286047001.8,N
1654489235.7,286047001.9,N
1654489255.6,286047004.2,Y
1654489275.4,286047002.4,P
1654489295.2,286047001.4,N
1654489315.1,286047002.4,P
1654489316.0,286047002.4,Y
1654489335.8,286047000.7,P
1654489355.7,286047001.2,N
1654489375.5,286047000.0,N
1654489395.3,286047000.6,N
1654489415.2,286047000.0,N
1654489435.0,286047000.3,N
1654489435.9,286047000.3,N
1654489455.8,286046998.9,N
1654489475.6,286046998.6,N
1654489495.4,286046999.4,N
1654489515.3,286046998.8,N
1654489535.1,286047001.2,N
1654489555.8,286046998.3,N
1654489575.7,286046998.7,N
1654489595.5,286046997.0,N
1654489615.4,286046997.9,N
1654489635.2,286046996.2,N
1654489655.0,286046995.4,Y
1654489655.9,286046995.4,P
1654489675.8,286046997.1,N
1654489695.6,286046996.7,N
1654489715.5,286046996.9,N
1654489735.3,286046996.7,N
1654489755.1,286046996.6,N
1654489775.9,286046997.3,N
1654489795.7,286046996.9,N
1654489815.5,286046997.7,N
1654489835.4,286046996.9,Y
1654489855.2,286047000.3,P
1654489875.1,286047002.6,N
1654489876.0,286047002.6,N
1654489895.8,286047001.9,N
1654489915.7,286047002.0,N
1654489935.5,286047001.5,N
1654489955.3,286047002.0,N
1654489975.2,286047003.9,N
1654489995.9,286047001.4,N
1654490015.7,286047004.2,N
1654490035.6,286047011.9,Y
1654490055.4,286047002.3,P
1654490075.3,286046999.7,N
1654490095.1,286047000.1,N
1654490096.0,286047000.1,N
1654490115.8,286047001.8,N
1654490135.7,286047001.9,N
1654490155.5,286047002.4,N
1654490175.4,286047000.3,N
1654490195.2,286047002.3,N
1654490215.0,286047002.1,N
1654490215.9,286047002.1,N
1654490235.8,286047002.8,N
1654490255.6,286047002.3,N
1654490275.5,286047002.6,N
1654490295.3,286047002.1,N
1654490315.1,286047002.0,N
1654490335.9,286047002.5,N
1654490355.7,286047002.1,N
1654490375.6,286047002.1,N
1654490395.4,286047004.4,Y
1654490415.2,286047000.6,P
1654490435.1,286047000.2,N
1654490436.0,286047000.2,N
1654490455.8,286047002.8,Y
1654490475.7,286047000.8,P
1654490495.5,286047001.2,P
1654490515.3,286047001.1,P
1654490535.2,286047001.1,Y
1654490555.0,286047001.2,P
1654490555.9,286047001.2,P
1654490575.7,286046998.3,P
1654490595.6,286047001.2,N
1654490615.4,286046998.4,N
1654490635.3,286046999.3,N
1654490655.1,286047000.7,N
1654490656.0,286047000.7,N
1654490675.8,286046998.1,N
1654490695.7,286047001.2,N
1654490715.5,286046998.1,N
1654490735.3,286047000.5,N
1654490755.2,286047000.4,N
1654490775.0,286047001.1,N
1654490775.9,286047001.1,N
1654490795.8,286047000.9,N
1654490815.6,286047001.0,N
1654490835.4,286046999.9,N
1654490855.3,286047001.0,N
1654490875.1,286046999.9,N
1654490895.8,286046999.7,N
1654490915.7,286047002.4,N
1654490935.5,286047000.7,N
1654490955.4,286047001.0,N
1654490975.2,286047000.0,N
1654490995.0,286047000.0,N
1654490995.9,286047000.0,N
1654491015.8,286047000.0,N
1654491035.6,286047000.8,N
1654491055.5,286046998.4,N
1654491075.3,286046999.9,N
1654491095.1,286046998.3,N
1654491115.9,286047001.2,N
1654491135.7,286047000.0,N
1654491155.6,286046999.9,N
1654491175.4,286047000.0,N
1654491195.2,286047000.1,N
1654491215.1,286047000.0,N
1654491216.0,286047000.0,N
1654491235.8,286047000.7,N
1654491255.6,286047000.4,N
1654491275.5,286046998.2,N
1654491295.3,286047000.3,N
1654491315.2,286047000.3,N
1654491335.9,286047000.6,N
1654491355.1,286046999.9,N
1654491356.0,286046999.9,N
1654491375.8,286047000.3,N
1654491395.7,286047000.6,N
1654491415.5,286047000.3,N
1654491435.3,286046998.1,N
1654491455.2,286046998.1,N
1654491475.0,286046998.4,N
1654491475.9,286046998.4,N
1654491495.7,286047001.0,N
1654491515.6,286047000.3,N
1654491535.4,286046999.9,N
1654491555.3,286047002.2,N
1654491575.1,286047000.2,N
1654491576.0,286047000.2,N
1654491595.8,286047000.2,N
